Location: Riverside
(34.7707°N, 80.8410°W)
Time: 10:55:11
(UTC+00:00)

Envisat - Visible Passes

Search period start: 11 June 2026 00:00
Search period end: 21 June 2026 00:00
Orbit: 761 x 763 km, 98.4° (Epoch: 10 June)

Date Brightness Start Highest point End Pass type
(mag) Time Alt. Az. Time Alt. Az. Time Alt. Az.
11 Jun 5.1 06:48:53 10° NE 06:52:05 17° E 06:53:20 15° ESE visible
11 Jun 3.4 08:26:21 10° N 08:31:11 46° WNW 08:33:27 28° SW visible
12 Jun 3.1 07:48:23 10° NNE 07:53:27 72° ESE 07:55:11 41° S visible
12 Jun 5.0 09:30:01 10° NW 09:31:42 12° WNW 09:33:23 10° W visible
13 Jun 4.4 07:11:09 10° NE 07:15:31 29° E 07:16:55 25° SE visible
13 Jun 4.2 08:50:05 10° NNW 08:54:18 27° WNW 08:57:02 17° WSW visible
14 Jun 5.4 06:35:48 10° ENE 06:37:24 11° E 06:38:38 11° ESE visible
14 Jun 3.0 08:11:41 10° N 08:16:42 66° WNW 08:18:45 35° SW visible
15 Jun 3.6 07:33:58 10° NNE 07:38:54 50° E 07:40:28 37° SSE visible
15 Jun 4.8 09:14:17 10° NNW 09:17:21 16° WNW 09:20:25 10° WSW visible
16 Jun 4.8 06:57:09 10° NE 07:00:54 21° E 07:02:11 19° ESE visible
16 Jun 3.7 08:35:14 10° N 08:39:52 38° WNW 08:42:19 23° WSW visible
17 Jun 2.9 07:57:06 10° NNE 08:02:12 89° ESE 08:04:03 40° SSW visible
18 Jun 4.1 07:19:40 10° NNE 07:24:19 36° E 07:25:45 30° SE visible
18 Jun 4.4 08:59:06 10° NNW 09:02:58 22° WNW 09:05:52 14° WSW visible
19 Jun 5.2 06:43:30 10° ENE 06:46:15 14° E 06:47:28 13° ESE visible
19 Jun 3.2 08:20:30 10° N 08:25:25 53° WNW 08:27:35 31° SW visible
20 Jun 3.2 07:42:37 10° NNE 07:47:39 63° ESE 07:49:18 40° SSE visible
20 Jun 5.0 09:23:38 10° NW 09:25:59 13° WNW 09:28:19 10° W visible
